Home > Weather > Kuala Lumpur > Past weeks

Flag for Malaysia Weather for the Past 2 Weeks in Kuala Lumpur, Malaysia

Now
84 °F

Broken clouds.


Feels Like: 92 °F
Forecast: 75 / 91 °F
Wind: 1 mph from East

Location: Sultan Abdul Aziz Shah-Subang

Current Time: Feb 13, 2016 at 11:32:08 AM

Latest Report: Feb 13, 2016 at 10:00 AM


Visibility: N/A

Pressure: 29.89 "Hg

Humidity: 74%

Dew point: 75 °F

Location of Kuala LumpurLocation

Historic Weather in Kuala Lumpur — Graph

°F

Kuala Lumpur Temperature Yesterday

Maximum temperature yesterday: 95 °F (at 2:00 PM)
Minimum temperature yesterday: 79 °F (at 12:00 AM)
Average temperature yesterday: 86 °F

High & Low Weather Summary for the Past Weeks

 TemperatureHumidityPressure
High95 °F (Feb 2, 3:00 PM)100% (Jan 30, 4:00 AM)29.92 "Hg (Jan 30, 4:00 AM)
Low75 °F (Feb 4, 4:00 AM)44% (Feb 2, 4:00 PM)29.71 "Hg (Feb 5, 5:00 PM)
Average83 °F78%29.83 "Hg
* Reported Jan 29 10:00 AM — Feb 13 10:00 AM, Kuala Lumpur, Weather by CustomWeather, © 2016

Note: Actual official high and low records may vary slightly from our data, if they occured in-between our weather recording intervals... More about our weather records

Advertising

Kuala Lumpur Weather History for the Previous 24 Hours

 ConditionsComfort  
Time TempWeatherWind HumidityBarometerVisibility
10:00 AM
Sat, Feb 13
84 °FBroken clouds.1 mph74%29.89 "HgN/A
9:00 AM81 °FBroken clouds.2 mph84%29.86 "HgN/A
8:00 AM79 °FPartly cloudy.2 mph89%29.86 "HgN/A
7:00 AM79 °FPassing clouds.2 mph89%29.83 "Hg6 mi
6:00 AM79 °FPassing clouds.3 mph84%29.80 "Hg6 mi
5:00 AM79 °FPartly cloudy.2 mph89%29.80 "Hg6 mi
4:00 AM81 °FPartly cloudy.1 mph84%29.80 "Hg6 mi
3:00 AM81 °FPartly cloudy.1 mph84%29.83 "Hg6 mi
2:00 AM81 °FPartly cloudy.3 mph79%29.83 "Hg6 mi
1:00 AM82 °FPartly cloudy.No wind74%29.83 "Hg6 mi
12:00 AM82 °FPartly cloudy.1 mph74%29.86 "Hg6 mi
11:00 PM
Fri, Feb 12
82 °FPartly cloudy.2 mph74%29.83 "HgN/A
10:00 PM82 °FPartly cloudy.1 mph79%29.83 "HgN/A
9:00 PM82 °FPartly cloudy.3 mph79%29.83 "HgN/A
8:00 PM88 °FBroken clouds.6 mph70%29.80 "HgN/A
7:00 PM90 °FBroken clouds.10 mph63%29.74 "HgN/A
6:00 PM91 °FBroken clouds.12 mph56%29.74 "HgN/A
5:00 PM93 °FBroken clouds.10 mph56%29.74 "HgN/A
4:00 PM95 °FBroken clouds.7 mph44%29.74 "HgN/A
3:00 PM95 °FBroken clouds.2 mph47%29.74 "HgN/A
2:00 PM95 °FPartly sunny.2 mph44%29.77 "HgN/A
1:00 PM93 °FPartly sunny.5 mph47%29.80 "HgN/A
12:00 PM91 °FBroken clouds.3 mph52%29.83 "HgN/A
11:00 AM91 °FPartly sunny.5 mph52%29.86 "HgN/A
Weather by CustomWeather, © 2016

See weather overviewHow to use our weather pages